This demonstration page uses our WeatherBlox Daily Observations layout. Learn more.

Left ArrowRight Arrow

Hourly Observations for February 26, 2018

Temp ( °F °C ) Dew Point ( °F °C ) Humidity (%) Winds ( mph kmh ) Pressure ( in mb ) Visibility ( mi km ) Precip ( " mm )
12:53 am 00:53 Clear 25 -3.9 14 -10 63 63 SSW 6 9 30.11 1020 10 16 0.00 0.00
1:53 am 01:53 Clear 27 -2.8 14 -10 58 58 SW 7 11 30.11 1020 10 16 0.00 0.00
2:53 am 02:53 Clear 26 -3.3 14 -10 60 60 SW 5 7 30.10 1019 10 16 0.00 0.00
3:53 am 03:53 Clear 24 -4.4 13 -10.6 62 62 SW 3 6 30.09 1019 10 16 0.00 0.00
4:53 am 04:53 Clear 24 -4.4 12 -11.1 60 60 SW 3 6 30.09 1019 10 16 0.00 0.00
5:53 am 05:53 Clear 25 -3.9 11 -11.7 55 55 S 6 9 30.11 1020 10 16 0.00 0.00
6:53 am 06:53 Clear 27 -2.8 10 -12.2 49 49 SSW 10 17 30.12 1020 10 16 0.00 0.00
7:53 am 07:53 Sunny 29 -1.7 10 -12.2 45 45 SSW 8 13 30.12 1020 10 16 0.00 0.00
8:53 am 08:53 Sunny 32 0 13 -10.6 45 45 SSW 12 19 30.13 1020 10 16 0.00 0.00
9:53 am 09:53 Sunny 42 5.6 18 -7.8 38 38 SSW 12 19 30.12 1020 10 16 0.00 0.00
10:53 am 10:53 Sunny 47 8.3 16 -8.9 29 29 SSW 12 19 30.11 1020 10 16 0.00 0.00
11:53 am 11:53 Sunny 51 10.6 14 -10 23 23 SSW 21 33 30.09 1019 10 16 0.00 0.00
12:53 pm 12:53 Sunny 52 11.1 18 -7.8 26 26 S 18 30 30.06 1018 10 16 0.00 0.00
1:53 pm 13:53 Sunny 57 13.9 14 -10 18 18 SSW 20 31 30.02 1017 10 16 0.00 0.00
2:53 pm 14:53 Sunny 58 14.4 12 -11.1 16 16 SSW 21 33 30.00 1016 10 16 0.00 0.00
3:53 pm 15:53 Sunny 60 15.6 11 -11.7 14 14 SSW 15 24 29.98 1015 10 16 0.00 0.00
4:53 pm 16:53 Sunny 60 15.6 8 -13.3 12 12 SSW 16 26 29.97 1015 10 16 0.00 0.00
5:53 pm 17:53 Sunny 56 13.3 9 -12.8 15 15 SSW 10 17 29.98 1015 10 16 0.00 0.00
6:53 pm 18:53 Clear 50 10 15 -9.4 25 25 S 8 13 29.99 1016 10 16 0.00 0.00
7:53 pm 19:53 Clear 48 8.9 15 -9.4 27 27 SSE 12 19 29.99 1016 10 16 0.00 0.00
8:53 pm 20:53 Clear 45 7.2 15 -9.4 30 30 SSE 10 17 29.99 1016 10 16 0.00 0.00
9:53 pm 21:53 Clear 43 6.1 17 -8.3 35 35 SSE 10 17 29.98 1015 10 16 0.00 0.00
10:53 pm 22:53 Clear 41 5 19 -7.2 41 41 SE 9 15 29.96 1015 10 16 0.00 0.00
11:53 pm 23:53 Clear 39 3.9 19 -7.2 45 45 SSE 10 17 29.95 1014 10 16 0.00 0.00

Powered by AerisWeather